Regional Weather Roundup
Issued by NWS Midland/Odessa, TX

Skip options and go directly to product.
Home | Oldest Version | Next Version | Current Version | All | Text Only | Save Text | Print | Product List | Glossary On

Skip product version selection by date and time.   
468
ASUS44 KMAF 300401
RWRMAF
MIDLAND AREA WEATHER ROUNDUP
NATIONAL WEATHER SERVICE MIDLAND TX
1100 PM CDT SAT AUG 29 2015

...IN SOUTHWEST TEXAS AND SOUTHEAST NEW MEXICO...

CITY           SKY/WX    TMP DP  RH WIND       PRES   REMARKS
ALPINE         CLEAR     70  50  49 CALM      30.24S
ANDREWS        FAIR      68  58  69 S6        30.14R
ARTESIA        PTCLDY    72  70  94 W6        30.14S
BIG SPRING     PTCLDY    70  54  57 S5        30.12R
CARLSBAD       CLOUDY    79  55  43 SE9       30.11S
DRYDEN           N/A     81  58  45 NW7       30.03S
FORT STOCKTON  PTCLDY    73  54  51 S5        30.11R
GUAD PASS      CLEAR     68  52  56 NE16      30.26S
HOBBS            N/A     66  57  72 CALM      30.17R
MARFA          CLEAR     64  48  55 NE7       30.22R
MIDLAND AIRPK  PTCLDY    74  60  61 CALM      30.13R
MIDLAND INTL   PTCLDY    68  59  73 CALM      30.12R
ODESSA         CLEAR     71  57  61 SE5       30.13R
PECOS          CLEAR     75  55  48 NE6       30.09S
PRESIDIO       NOT AVBL
SEMINOLE       CLEAR     68  52  57 S5        30.15R
SNYDER         CLOUDY    72  55  55 CALM      30.09R
WINK           PTCLDY    73  60  63 E3        30.10R
$$
...OTHER STATIONS IN TEXAS...

CITY           SKY/WX    TMP DP  RH WIND       PRES   REMARKS
ABILENE        CLOUDY    72  64  76 N5        30.04S
AMARILLO       PTCLDY    69  59  70 W3        30.16R
AUSTIN         MOCLDY    80  63  55 SE5       30.00R
BROWNSVILLE    CLEAR     79  72  79 SE6       29.98R
CORPUS CHRISTI MOCLDY    76  62  62 SE7       30.00R
DALLAS FTW     MOCLDY    80  64  58 S5        29.97R
DEL RIO        MOCLDY    88  55  32 SE8       29.96R
EL PASO        PTCLDY    84  54  35 E13       30.11R
HOUSTON INT    MOCLDY    76  65  68 S5        30.02R
LUBBOCK        MOCLDY    72  56  57 SW5       30.14R
SAN ANGELO     CLOUDY    79  55  43 E6        30.06R
SAN ANTONIO    MOCLDY    84  61  45 SE14      30.01R
WACO           MOCLDY    85  59  41 CALM      30.00R
WICHITA FALLS  NOT AVBL
$$
...OTHER LOCATIONS IN NEW MEXICO...

CITY           SKY/WX    TMP DP  RH WIND       PRES   REMARKS
ALAMAGORDO     PTCLDY    72  59  64 CALM      30.14R
ALBUQUERQUE    PTCLDY    77  46  33 E13       30.22R
CANNON AFB     CLEAR     69  56  62 NW3       30.20R
CLOVIS         CLEAR     68  57  68 CALM      30.21R
HOLLOMAN AFB   PTCLDY    77  61  57 NW3       30.12R
ROSWELL        CLEAR     72  58  61 W6        30.15R
RUIDOSO        PTCLDY    63  54  72 MISG      30.39R
SANTA FE       CLEAR     61  49  64 N3        30.30R
TRUTH OR CONSE PTCLDY    78  51  38 SW8       30.17R
TUCUMCARI      CLEAR     68  58  70 SW5       30.17R
$$

USA.gov is the U.S. government's official web portal to all federal, state and local government web resources and services.